Location: Hurstbourne Priors
(51.2000°N, 1.3667°W)
Time: 22:44:26
(UTC+00:00)

Altair - Pass Details

Date: 17 April 2021
Orbit: 1501 x 1683 km, 47.2° (Epoch: 13 May)

Event Time Altitude Azimuth Distance (km) Brightness Sun altitude
Rises 08:15:33 0° 248° (WSW) 4,834 9.7 28.4°
Reaches altitude 10° 08:18:43 10° 246° (WSW) 3,825 9.3 28.9°
Maximum altitude 08:28:16 66° 167° (SSE) 1,683 8.5 30.3°
Drops below altitude 10° 08:37:28 10° 88° (E) 3,694 10.6 31.6°
Sets 08:40:29 0° 86° (E) 4,661 10.9 32.0°
